Notices

What's New in latest Release from April 7th, 2021:

- Updated Glossary, including Speed of Maximum Gust, and Total Hourly Precipitation

- Updated national and regional climate services offices contacts and prices information

- Addition of station inventory lists for 1981-2010, 1971-2000, and 1961-1990 Normals.

If you haven't already, please take our survey and provide feedback about our website: https://eccc.sondage-survey.ca/f/LanguageSelection.aspx?s=442ca660-fcf1-47c0-95a9-59707d6fd709

Hourly Data Report for July 04, 2018

TORONTO CITY
ONTARIO
Current Station Operator: ECCC - MSC

43°40'00.000" N
79°24'00.000" W
112.50 m
6158355
71508
XTO

Download Data

Hourly Data (July 2018)
Hourly Data Report for July 4, 2018
TIME
LST
Temp Definition
°C
Dew Point Definition
°C
Rel Hum Definition
%
Precip. Amount Definition
mm

Wind Dir Definition
10's deg

Wind Spd Definition
km/h
Visibility Definition
km
Stn Press Definition
kPa
Hmdx Definition


Wind Chill Definition


Weather Definition


00:00 24.4 12.7 48 0.0 LegendMM LegendMM   101.09 27   LegendNANA
01:00 23.8 12.8 50 0.0 LegendMM LegendMM   101.06 26   LegendNANA
02:00 21.6 12.9 58 0.0 LegendMM LegendMM   101.06     LegendNANA
03:00 22.4 13.4 57 0.0 LegendMM LegendMM   101.06 25   LegendNANA
04:00 22.4 13.0 55 0.0 LegendMM LegendMM   101.06 25   LegendNANA
05:00 22.0 13.2 57 0.0 LegendMM LegendMM   101.11 25   LegendNANA
06:00 22.7 13.6 56 0.0 LegendMM LegendMM   101.18 26   LegendNANA
07:00 24.1 13.9 53 0.0 LegendMM LegendMM   101.18 27   LegendNANA
08:00 25.7 11.6 41 0.0 LegendMM LegendMM   101.20 28   LegendNANA
09:00 26.9 12.2 40 0.0 LegendMM LegendMM   101.20 29   LegendNANA
10:00 27.5 12.0 38 0.0 LegendMM LegendMM   101.21 30   LegendNANA
11:00 27.8 10.3 34 0.0 LegendMM LegendMM   101.22 29   LegendNANA
12:00 29.0 11.6 34 0.0 LegendMM LegendMM   101.19 31   LegendNANA
13:00 30.1 11.8 33 0.0 LegendMM LegendMM   101.12 32   LegendNANA
14:00 30.7 12.0 32 0.0 LegendMM LegendMM   101.05 33   LegendNANA
15:00 31.5 12.6 32 0.0 LegendMM LegendMM   101.02 34   LegendNANA
16:00 32.2 14.1 33 0.0 LegendMM LegendMM   100.98 36   LegendNANA
17:00 29.3 12.3 35 0.0 LegendMM LegendMM   100.97 32   LegendNANA
18:00 27.8 14.4 44 0.0 LegendMM LegendMM   100.98 31   LegendNANA
19:00 26.8 15.1 49 0.0 LegendMM LegendMM   100.99 31   LegendNANA
20:00 26.3 15.3 51 0.0 LegendMM LegendMM   100.99 30   LegendNANA
21:00 25.8 14.8 51 0.0 LegendMM LegendMM   101.02 30   LegendNANA
22:00 25.1 15.0 54 0.0 LegendMM LegendMM   101.05 29   LegendNANA
23:00 24.9 15.8 57 0.0 LegendMM LegendMM   101.01 29   LegendNANA

Notes on Data Quality.

Legend

  • E = Estimated
  • M = Missing
  • NA = Not Available*
  • [empty] = Indicates an unobserved value
Date modified: